Regional Weather Roundup
Issued by NWS

Home | Current Version | Previous Version | Text Only | Print | Product List | Glossary Off
Versions: 1 2 3 4 5 6 7 8 9 10 11 12 13 14 15 16 17 18 19 20 21 22 23 24 25 26 27 28 29 30 31 32 33 34 35 36 37 38 39 40 41 42 43 44 45 46 47 48 49 50

000
ASUS43 KFSD 020810
RWRSD

WEATHER ROUNDUP FOR SOUTH DAKOTA
NATIONAL WEATHER SERVICE SIOUX FALLS SD
200 AM CST MON MAR 02 2015

NOTE: "FAIR" INDICATES FEW OR NO CLOUDS BELOW 12,000 FEET WITH NO
SIGNIFICANT WEATHER AND/OR OBSTRUCTIONS TO VISIBILITY.


SDZ001>005-009-010-012>017-020900-
NORTHWEST AND NORTH CENTRAL SOUTH DAKOTA

CITY           SKY/WX    TMP DP  RH WIND       PRES   REMARKS
BUFFALO          N/A     10   4  76 S12       30.11F WCI  -5
FAITH            N/A      9   5  84 S12       30.27F WCI  -6
MOBRIDGE       PTCLDY     7   3  84 SE5       30.33F WCI  -2
$$

SDZ012>016-024>037-041>051-057-063-072>074-020900-
SOUTHWEST AND SOUTH CENTRAL SOUTH DAKOTA

CITY           SKY/WX    TMP DP  RH WIND       PRES   REMARKS
RAPID CTY ARPT PTCLDY    13   7  77 S13       30.22F WCI  -2
PIERRE         CLEAR      9   7  92 E3        30.37F
CUSTER         PTCLDY     9   3  77 SW3       30.08F
ELLSWORTH AFB  CLEAR     14   7  74 S15       30.20F WCI  -1
PHILIP         PTCLDY     2  -3  80 CALM      30.33F
PINE RIDGE     PTCLDY    23   8  52 SE13G20   30.23F WCI  11
WINNER         FAIR      16   4  59 SE8       30.38S WCI   5
$$

SDZ004>011-016>023-039-040-020900-
NORTHEAST SOUTH DAKOTA

CITY           SKY/WX    TMP DP  RH WIND       PRES   REMARKS
ABERDEEN       PTCLDY     1  -3  83 CALM      30.42F
WATERTOWN      PTCLDY     3   0  87 S3        30.40S
SISSETON         N/A     10   2  69 W7        30.42R WCI  -1
$$

SDZ017-020-022-023-036>040-048>070-020900-
SOUTHEAST SOUTH DAKOTA

CITY           SKY/WX    TMP DP  RH WIND       PRES   REMARKS
SIOUX FALLS    CLEAR     11   8  88 CALM      30.45R
HURON          MOCLDY     5   1  83 CALM      30.44S
CHAMBERLAIN    PTCLDY    11   8  85 SE3       30.40F
MITCHELL       MOCLDY    11   8  88 SW6       30.46S WCI   1
YANKTON        PTCLDY    16  10  79 CALM      30.48S
$$

ABBREVIATIONS USED IN REMARKS
   TC - TEMPERATURE IN CELSIUS
  WCI - WIND CHILL INDEX
   HX - HEAT INDEX
  VSB - VISIBILITY



USA.gov is the U.S. government's official web portal to all federal, state and local government web resources and services.